Time,TemperatureF,DewpointF,PressureIn,WindDirection,WindDirectionDegrees,WindSpeedMPH,WindSpeedGustMPH,Humidity,HourlyPrecipIn,Conditions,Clouds,dailyrainin,SoftwareType,DateUTC
2013-02-22 00:01:00,13.0,11.0,29.94,East,94,4.0,-999.0,89,-99.99,,,-99.99,,2013-02-22 07:01:00,
2013-02-22 00:11:00,13.0,10.0,29.92,East,85,3.0,-999.0,89,-99.99,,,-99.99,,2013-02-22 07:11:00,
2013-02-22 00:21:00,13.0,10.0,29.95,East,83,5.0,-999.0,89,-99.99,,,-99.99,,2013-02-22 07:21:00,
2013-02-22 00:31:00,13.0,10.0,29.90,East,82,5.0,-999.0,89,-99.99,,,-99.99,,2013-02-22 07:31:00,
2013-02-22 00:42:00,13.0,11.0,29.92,ENE,77,5.0,-999.0,90,-99.99,,,-99.99,,2013-02-22 07:42:00,
2013-02-22 00:51:00,13.0,10.0,29.92,East,91,3.0,-999.0,89,-99.99,,,-99.99,,2013-02-22 07:51:00,
2013-02-22 01:01:00,13.0,10.0,29.92,North,0,0.0,-999.0,89,-99.99,,,-99.99,,2013-02-22 08:01:00,
2013-02-22 01:11:00,13.0,10.0,29.91,NE,45,2.0,-999.0,89,-99.99,,,-99.99,,2013-02-22 08:11:00,
2013-02-22 01:21:00,13.0,10.0,29.91,NE,35,2.0,-999.0,89,-99.99,,,-99.99,,2013-02-22 08:21:00,
2013-02-22 01:31:00,13.0,10.0,29.90,NNE,33,2.0,-999.0,89,-99.99,,,-99.99,,2013-02-22 08:31:00,
2013-02-22 01:42:00,13.0,10.0,29.90,NE,37,3.0,-999.0,89,-99.99,,,-99.99,,2013-02-22 08:42:00,
2013-02-22 01:52:00,13.0,10.0,29.91,NNE,33,3.0,-999.0,89,-99.99,,,-99.99,,2013-02-22 08:52:00,
2013-02-22 02:03:00,12.0,10.0,29.88,NE,37,3.0,-999.0,89,-99.99,,,-99.99,,2013-02-22 09:03:00,
2013-02-22 02:11:00,12.0,9.0,29.91,NE,41,5.0,-999.0,90,-99.99,,,-99.99,,2013-02-22 09:11:00,
2013-02-22 02:21:00,12.0,9.0,29.89,NE,36,4.0,-999.0,90,-99.99,,,-99.99,,2013-02-22 09:21:00,
2013-02-22 02:32:00,12.0,9.0,29.88,NNE,27,3.0,-999.0,89,-99.99,,,-99.99,,2013-02-22 09:32:00,
2013-02-22 02:42:00,12.0,9.0,29.91,NNE,17,4.0,-999.0,89,-99.99,,,-99.99,,2013-02-22 09:42:00,
2013-02-22 02:51:00,12.0,9.0,29.87,NNE,13,4.0,-999.0,89,-99.99,,,-99.99,,2013-02-22 09:51:00,
2013-02-22 03:01:00,12.0,9.0,29.89,North,-999,3.0,-999.0,89,-99.99,,,-99.99,,2013-02-22 10:01:00,
2013-02-22 03:11:00,12.0,10.0,29.92,NNW,342,3.0,-999.0,89,-99.99,,,-99.99,,2013-02-22 10:11:00,
2013-02-22 03:21:00,12.0,10.0,29.90,NNE,25,4.0,-999.0,89,-99.99,,,-99.99,,2013-02-22 10:21:00,
2013-02-22 03:32:00,12.0,9.0,29.89,NE,51,5.0,-999.0,89,-99.99,,,-99.99,,2013-02-22 10:32:00,
2013-02-22 03:42:00,12.0,9.0,29.90,NE,49,6.0,-999.0,90,-99.99,,,-99.99,,2013-02-22 10:42:00,
2013-02-22 03:51:00,11.0,9.0,29.91,ENE,60,5.0,-999.0,89,-99.99,,,-99.99,,2013-02-22 10:51:00,
2013-02-22 04:01:00,11.0,9.0,29.91,NE,50,5.0,-999.0,89,-99.99,,,-99.99,,2013-02-22 11:01:00,
2013-02-22 04:11:00,11.0,8.0,29.91,NE,51,5.0,-999.0,89,-99.99,,,-99.99,,2013-02-22 11:11:00,
2013-02-22 04:21:00,11.0,8.0,29.91,ENE,62,5.0,-999.0,89,-99.99,,,-99.99,,2013-02-22 11:21:00,
2013-02-22 04:32:00,11.0,8.0,29.91,East,87,4.0,-999.0,89,-99.99,,,-99.99,,2013-02-22 11:32:00,
2013-02-22 04:42:00,11.0,8.0,29.92,ESE,108,3.0,-999.0,88,-99.99,,,-99.99,,2013-02-22 11:42:00,
2013-02-22 04:52:00,11.0,8.0,29.92,ESE,109,3.0,-999.0,88,-99.99,,,-99.99,,2013-02-22 11:52:00,
2013-02-22 05:02:00,11.0,8.0,29.90,ESE,102,3.0,-999.0,88,-99.99,,,-99.99,,2013-02-22 12:02:00,
2013-02-22 05:11:00,11.0,8.0,29.92,East,93,4.0,-999.0,88,-99.99,,,-99.99,,2013-02-22 12:11:00,
2013-02-22 05:22:00,11.0,8.0,29.92,East,87,5.0,-999.0,88,-99.99,,,-99.99,,2013-02-22 12:22:00,
2013-02-22 05:32:00,10.0,8.0,29.93,East,99,6.0,-999.0,88,-99.99,,,-99.99,,2013-02-22 12:32:00,
2013-02-22 05:42:00,10.0,7.0,29.93,East,100,7.0,-999.0,88,-99.99,,,-99.99,,2013-02-22 12:42:00,
2013-02-22 05:52:00,9.0,6.0,29.92,East,96,8.0,-999.0,87,-99.99,,,-99.99,,2013-02-22 12:52:00,
2013-02-22 06:02:00,9.0,7.0,29.93,East,92,8.0,-999.0,88,-99.99,,,-99.99,,2013-02-22 13:02:00,
2013-02-22 06:11:00,9.0,6.0,29.93,East,97,8.0,-999.0,87,-99.99,,,-99.99,,2013-02-22 13:11:00,
2013-02-22 06:22:00,9.0,6.0,29.94,East,100,7.0,-999.0,87,-99.99,,,-99.99,,2013-02-22 13:22:00,
2013-02-22 06:32:00,9.0,6.0,29.92,ESE,112,6.0,-999.0,87,-99.99,,,-99.99,,2013-02-22 13:32:00,
2013-02-22 06:42:00,10.0,7.0,29.90,ESE,106,5.0,-999.0,88,-99.99,,,-99.99,,2013-02-22 13:42:00,
2013-02-22 06:52:00,10.0,8.0,29.92,ESE,102,4.0,-999.0,88,-99.99,,,-99.99,,2013-02-22 13:52:00,
2013-02-22 07:01:00,10.0,8.0,29.91,North,0,0.0,-999.0,88,-99.99,,,-99.99,,2013-02-22 14:01:00,
2013-02-22 07:11:00,9.0,6.0,29.92,WSW,239,3.0,-999.0,87,-99.99,,,-99.99,,2013-02-22 14:11:00,
2013-02-22 07:21:00,8.0,5.0,29.92,SW,232,2.0,-999.0,87,-99.99,,,-99.99,,2013-02-22 14:21:00,
2013-02-22 07:32:00,8.0,5.0,29.91,SW,234,2.0,-999.0,87,-99.99,,,-99.99,,2013-02-22 14:32:00,
2013-02-22 07:42:00,8.0,5.0,29.93,WSW,253,4.0,-999.0,87,-99.99,,,-99.99,,2013-02-22 14:42:00,
2013-02-22 07:52:00,8.0,5.0,29.94,WSW,242,4.0,-999.0,87,-99.99,,,-99.99,,2013-02-22 14:52:00,
2013-02-22 08:01:00,8.0,5.0,29.95,WSW,248,5.0,-999.0,87,-99.99,,,-99.99,,2013-02-22 15:01:00,
2013-02-22 08:11:00,8.0,5.0,29.93,SW,216,4.0,-999.0,87,-99.99,,,-99.99,,2013-02-22 15:11:00,
2013-02-22 08:21:00,9.0,6.0,29.94,SW,232,4.0,-999.0,87,-99.99,,,-99.99,,2013-02-22 15:21:00,
2013-02-22 08:32:00,9.0,6.0,29.95,SW,226,4.0,-999.0,88,-99.99,,,-99.99,,2013-02-22 15:32:00,
2013-02-22 08:42:00,10.0,7.0,29.92,SW,233,4.0,-999.0,88,-99.99,,,-99.99,,2013-02-22 15:42:00,
2013-02-22 08:52:00,10.0,7.0,29.93,SW,231,5.0,-999.0,88,-99.99,,,-99.99,,2013-02-22 15:52:00,
2013-02-22 09:01:00,10.0,7.0,29.93,SW,227,5.0,-999.0,87,-99.99,,,-99.99,,2013-02-22 16:01:00,
2013-02-22 09:12:00,10.0,7.0,29.93,SW,216,6.0,-999.0,87,-99.99,,,-99.99,,2013-02-22 16:12:00,
2013-02-22 09:22:00,11.0,8.0,29.93,SW,214,6.0,-999.0,87,-99.99,,,-99.99,,2013-02-22 16:22:00,
2013-02-22 09:32:00,12.0,9.0,29.93,SSW,212,6.0,-999.0,87,-99.99,,,-99.99,,2013-02-22 16:32:00,
2013-02-22 09:42:00,12.0,9.0,29.93,SW,217,5.0,-999.0,86,-99.99,,,-99.99,,2013-02-22 16:42:00,
2013-02-22 09:52:00,13.0,10.0,29.94,SW,231,5.0,-999.0,87,-99.99,,,-99.99,,2013-02-22 16:52:00,
2013-02-22 10:01:00,14.0,10.0,29.94,WSW,242,4.0,-999.0,86,-99.99,,,-99.99,,2013-02-22 17:01:00,
2013-02-22 10:11:00,15.0,11.0,29.93,SSW,212,5.0,-999.0,86,-99.99,,,-99.99,,2013-02-22 17:11:00,
2013-02-22 10:21:00,15.0,11.0,29.91,SW,226,6.0,-999.0,85,-99.99,,,-99.99,,2013-02-22 17:21:00,
2013-02-22 10:32:00,16.0,12.0,29.92,SW,224,6.0,-999.0,85,-99.99,,,-99.99,,2013-02-22 17:32:00,
2013-02-22 10:42:00,16.0,12.0,29.93,SW,224,6.0,-999.0,84,-99.99,,,-99.99,,2013-02-22 17:42:00,
2013-02-22 10:52:00,17.0,13.0,29.92,SW,215,6.0,-999.0,84,-99.99,,,-99.99,,2013-02-22 17:52:00,
2013-02-22 11:01:00,17.0,13.0,29.92,SW,214,4.0,-999.0,82,-99.99,,,-99.99,,2013-02-22 18:01:00,
2013-02-22 11:12:00,18.0,13.0,29.92,SW,223,4.0,-999.0,81,-99.99,,,-99.99,,2013-02-22 18:12:00,
2013-02-22 11:22:00,18.0,13.0,29.92,SW,235,6.0,-999.0,81,-99.99,,,-99.99,,2013-02-22 18:22:00,
2013-02-22 11:32:00,18.0,13.0,29.93,WSW,254,6.0,-999.0,81,-99.99,,,-99.99,,2013-02-22 18:32:00,
2013-02-22 11:42:00,18.0,13.0,29.94,SW,234,5.0,-999.0,79,-99.99,,,-99.99,,2013-02-22 18:42:00,
2013-02-22 11:51:00,19.0,13.0,29.92,SW,233,6.0,-999.0,77,-99.99,,,-99.99,,2013-02-22 18:51:00,
2013-02-22 12:01:00,19.0,13.0,29.92,SW,233,6.0,-999.0,77,-99.99,,,-99.99,,2013-02-22 19:01:00,
2013-02-22 12:11:00,20.0,14.0,29.92,SW,225,5.0,-999.0,76,-99.99,,,-99.99,,2013-02-22 19:11:00,
2013-02-22 12:21:00,21.0,14.0,29.91,South,183,4.0,-999.0,75,-99.99,,,-99.99,,2013-02-22 19:21:00,
2013-02-22 12:31:00,21.0,14.0,29.91,South,187,5.0,-999.0,74,-99.99,,,-99.99,,2013-02-22 19:31:00,
2013-02-22 12:41:00,21.0,14.0,29.92,SSW,206,7.0,-999.0,74,-99.99,,,-99.99,,2013-02-22 19:41:00,
2013-02-22 12:52:00,22.0,14.0,29.91,SW,229,6.0,-999.0,73,-99.99,,,-99.99,,2013-02-22 19:52:00,
2013-02-22 13:01:00,22.0,14.0,29.90,WSW,249,7.0,-999.0,73,-99.99,,,-99.99,,2013-02-22 20:01:00,
2013-02-22 13:11:00,22.0,14.0,29.90,SW,217,7.0,-999.0,72,-99.99,,,-99.99,,2013-02-22 20:11:00,
2013-02-22 13:21:00,23.0,15.0,29.89,SW,215,7.0,-999.0,72,-99.99,,,-99.99,,2013-02-22 20:21:00,
2013-02-22 13:32:00,23.0,16.0,29.89,SW,227,9.0,-999.0,73,-99.99,,,-99.99,,2013-02-22 20:32:00,
2013-02-22 13:41:00,24.0,16.0,29.87,SSW,209,7.0,-999.0,73,-99.99,,,-99.99,,2013-02-22 20:41:00,
2013-02-22 13:52:00,24.0,17.0,29.89,SW,223,8.0,-999.0,73,-99.99,,,-99.99,,2013-02-22 20:52:00,
2013-02-22 14:01:00,24.0,17.0,29.87,SSW,209,7.0,-999.0,73,-99.99,,,-99.99,,2013-02-22 21:01:00,
2013-02-22 14:11:00,25.0,17.0,29.85,SSW,211,9.0,-999.0,73,-99.99,,,-99.99,,2013-02-22 21:11:00,
2013-02-22 14:21:00,24.0,17.0,29.87,SSW,197,10.0,-999.0,74,-99.99,,,-99.99,,2013-02-22 21:21:00,
2013-02-22 14:32:00,26.0,18.0,29.86,SW,216,10.0,-999.0,73,-99.99,,,-99.99,,2013-02-22 21:32:00,
2013-02-22 14:42:00,26.0,19.0,29.84,SSW,211,9.0,-999.0,73,-99.99,,,-99.99,,2013-02-22 21:42:00,
2013-02-22 14:52:00,27.0,19.0,29.85,SSW,196,8.0,-999.0,73,-99.99,,,-99.99,,2013-02-22 21:52:00,
2013-02-22 15:01:00,27.0,19.0,29.84,SSW,200,7.0,-999.0,73,-99.99,,,-99.99,,2013-02-22 22:01:00,
2013-02-22 15:11:00,27.0,20.0,29.84,South,185,8.0,-999.0,73,-99.99,,,-99.99,,2013-02-22 22:11:00,
2013-02-22 15:21:00,27.0,20.0,29.85,South,183,7.0,-999.0,73,-99.99,,,-99.99,,2013-02-22 22:21:00,
2013-02-22 15:31:00,28.0,20.0,29.83,South,178,9.0,-999.0,73,-99.99,,,-99.99,,2013-02-22 22:31:00,
2013-02-22 15:42:00,28.0,21.0,29.83,South,175,8.0,-999.0,74,-99.99,,,-99.99,,2013-02-22 22:42:00,
2013-02-22 15:51:00,28.0,21.0,29.82,South,178,7.0,-999.0,75,-99.99,,,-99.99,,2013-02-22 22:51:00,
2013-02-22 16:01:00,28.0,21.0,29.84,SSE,168,8.0,-999.0,75,-99.99,,,-99.99,,2013-02-22 23:01:00,
2013-02-22 16:11:00,27.0,21.0,29.83,SSE,163,8.0,-999.0,77,-99.99,,,-99.99,,2013-02-22 23:11:00,
2013-02-22 16:21:00,27.0,21.0,29.84,South,176,10.0,-999.0,77,-99.99,,,-99.99,,2013-02-22 23:21:00,
2013-02-22 16:31:00,27.0,21.0,29.82,SSE,158,6.0,-999.0,78,-99.99,,,-99.99,,2013-02-22 23:31:00,
2013-02-22 16:41:00,27.0,21.0,29.84,SSE,158,7.0,-999.0,78,-99.99,,,-99.99,,2013-02-22 23:41:00,
2013-02-22 16:52:00,26.0,21.0,29.81,SSE,152,8.0,-999.0,80,-99.99,,,-99.99,,2013-02-22 23:52:00,
2013-02-22 17:01:00,25.0,20.0,29.82,SSE,159,10.0,-999.0,80,-99.99,,,-99.99,,2013-02-23 00:01:00,
2013-02-22 17:11:00,25.0,20.0,29.82,SE,145,9.0,-999.0,81,-99.99,,,-99.99,,2013-02-23 00:11:00,
2013-02-22 17:21:00,24.0,19.0,29.82,SSE,148,8.0,-999.0,81,-99.99,,,-99.99,,2013-02-23 00:21:00,
2013-02-22 17:32:00,24.0,18.0,29.83,SSE,147,9.0,-999.0,80,-99.99,,,-99.99,,2013-02-23 00:32:00,
2013-02-22 17:42:00,23.0,18.0,29.83,SSE,149,10.0,-999.0,80,-99.99,,,-99.99,,2013-02-23 00:42:00,
2013-02-22 17:51:00,23.0,18.0,29.82,SSE,151,8.0,-999.0,80,-99.99,,,-99.99,,2013-02-23 00:51:00,
2013-02-22 18:01:00,22.0,17.0,29.80,SSE,147,9.0,-999.0,81,-99.99,,,-99.99,,2013-02-23 01:01:00,
2013-02-22 18:11:00,23.0,18.0,29.80,SSE,155,9.0,-999.0,81,-99.99,,,-99.99,,2013-02-23 01:11:00,
2013-02-22 18:21:00,23.0,18.0,29.81,SSE,152,9.0,-999.0,80,-99.99,,,-99.99,,2013-02-23 01:21:00,
2013-02-22 18:32:00,23.0,18.0,29.81,SSE,150,9.0,-999.0,80,-99.99,,,-99.99,,2013-02-23 01:32:00,
2013-02-22 18:42:00,23.0,18.0,29.79,SSE,158,7.0,-999.0,81,-99.99,,,-99.99,,2013-02-23 01:42:00,
2013-02-22 18:51:00,23.0,18.0,29.82,SSE,156,8.0,-999.0,81,-99.99,,,-99.99,,2013-02-23 01:51:00,
2013-02-22 19:01:00,23.0,17.0,29.81,SSE,155,7.0,-999.0,80,-99.99,,,-99.99,,2013-02-23 02:01:00,
2013-02-22 19:11:00,23.0,18.0,29.80,SSE,153,9.0,-999.0,80,-99.99,,,-99.99,,2013-02-23 02:11:00,
2013-02-22 19:21:00,23.0,18.0,29.80,SSE,147,9.0,-999.0,80,-99.99,,,-99.99,,2013-02-23 02:21:00,
2013-02-22 19:31:00,23.0,18.0,29.81,SSE,155,9.0,-999.0,81,-99.99,,,-99.99,,2013-02-23 02:31:00,
2013-02-22 19:42:00,23.0,18.0,29.81,SSE,156,10.0,-999.0,81,-99.99,,,-99.99,,2013-02-23 02:42:00,
2013-02-22 19:52:00,23.0,18.0,29.80,SSE,158,9.0,-999.0,81,-99.99,,,-99.99,,2013-02-23 02:52:00,
2013-02-22 20:01:00,22.0,17.0,29.78,SE,146,8.0,-999.0,82,-99.99,,,-99.99,,2013-02-23 03:01:00,
2013-02-22 20:11:00,22.0,18.0,29.78,SSE,148,8.0,-999.0,82,-99.99,,,-99.99,,2013-02-23 03:11:00,
2013-02-22 20:21:00,23.0,18.0,29.80,SSE,151,8.0,-999.0,81,-99.99,,,-99.99,,2013-02-23 03:21:00,
2013-02-22 20:32:00,23.0,18.0,29.78,SSE,149,9.0,-999.0,81,-99.99,,,-99.99,,2013-02-23 03:32:00,
2013-02-22 20:42:00,22.0,18.0,29.78,SSE,160,11.0,-999.0,82,-99.99,,,-99.99,,2013-02-23 03:42:00,
2013-02-22 20:51:00,23.0,17.0,29.80,South,173,13.0,-999.0,79,-99.99,,,-99.99,,2013-02-23 03:51:00,
2013-02-22 21:01:00,24.0,17.0,29.79,SSE,168,12.0,-999.0,77,-99.99,,,-99.99,,2013-02-23 04:01:00,
2013-02-22 21:11:00,24.0,18.0,29.78,SSE,168,12.0,-999.0,78,-99.99,,,-99.99,,2013-02-23 04:11:00,
2013-02-22 21:21:00,22.0,17.0,29.77,SSE,154,9.0,-999.0,81,-99.99,,,-99.99,,2013-02-23 04:21:00,
2013-02-22 21:31:00,22.0,17.0,29.79,SSE,151,8.0,-999.0,83,-99.99,,,-99.99,,2013-02-23 04:31:00,
2013-02-22 21:41:00,22.0,17.0,29.77,SSE,148,8.0,-999.0,83,-99.99,,,-99.99,,2013-02-23 04:41:00,
2013-02-22 21:51:00,22.0,18.0,29.77,SE,146,9.0,-999.0,84,-99.99,,,-99.99,,2013-02-23 04:51:00,
2013-02-22 22:03:00,22.0,18.0,29.77,SE,146,9.0,-999.0,84,-99.99,,,-99.99,,2013-02-23 05:03:00,
2013-02-22 22:12:00,22.0,17.0,29.76,SSE,150,10.0,-999.0,82,-99.99,,,-99.99,,2013-02-23 05:12:00,
2013-02-22 22:22:00,22.0,18.0,29.78,SSE,149,11.0,-999.0,82,-99.99,,,-99.99,,2013-02-23 05:22:00,
2013-02-22 22:33:00,22.0,17.0,29.77,SSE,149,11.0,-999.0,81,-99.99,,,-99.99,,2013-02-23 05:33:00,
2013-02-22 22:42:00,22.0,17.0,29.78,SSE,153,12.0,-999.0,80,-99.99,,,-99.99,,2013-02-23 05:42:00,
2013-02-22 22:52:00,22.0,17.0,29.76,SSE,151,11.0,-999.0,81,-99.99,,,-99.99,,2013-02-23 05:52:00,
2013-02-22 23:01:00,22.0,17.0,29.76,SSE,152,11.0,-999.0,79,-99.99,,,-99.99,,2013-02-23 06:01:00,
2013-02-22 23:11:00,22.0,17.0,29.76,SSE,157,12.0,-999.0,80,-99.99,,,-99.99,,2013-02-23 06:11:00,
2013-02-22 23:22:00,22.0,17.0,29.77,SSE,157,13.0,-999.0,80,-99.99,,,-99.99,,2013-02-23 06:22:00,
2013-02-22 23:32:00,22.0,16.0,29.74,SSE,160,13.0,-999.0,80,-99.99,,,-99.99,,2013-02-23 06:32:00,
2013-02-22 23:41:00,22.0,16.0,29.74,SSE,161,14.0,-999.0,80,-99.99,,,-99.99,,2013-02-23 06:41:00,
2013-02-22 23:51:00,21.0,16.0,29.76,SSE,165,14.0,-999.0,81,-99.99,,,-99.99,,2013-02-23 06:51:00,